Voltar ao catálogo

STARLINK-6367

AtivoComunicaçõesVLEO
NORAD 57376·PAYLOAD·🇺🇸 United States

Lançado Jul 16, 2023 de Cape Canaveral Space Force Station

Loading…

Próximas Passagens (próximas 24 horas)

TLE

AtualizadoSource: CelesTrak SupGP

Época: Sep 14, 2026, 21:00 UTC

1 57376C 23099BA  26257.87548611  .00031814  00000+0  11526-2 0  2573
2 57376  42.9991 249.7541 0001315 256.7679 113.1062 15.27554118    12

Acompanhe STARLINK-6367 em tempo real com AllMySat

Download on the App Store